RADUGA-1 7 [-]

Last updated on July 6, 2021, 3:35 p.m. UTC

1 28194U 04010A   21186.72618451  .00000130  00000-0  00000-0 0  9995
2 28194  11.5673  34.1713 0001329  31.6792 156.8915  1.00345809 63285
UTC
Height (km)
Latitude
Longitude
Inclination
Orbital Period
UTC large
Height (km)
Speed (km/s)
/
Latitude / Longitude
Inclination (degrees)
Orbital Period (minutes)
Azimuth
Elevation
Range (km)
Doppler Factor
iOS Compass Heading
iOS Angle